Content
SEND FEEDBACK

Daily
Averages
Monthly
Summary
Spain

PUERTO DEL ROSARIO, SPAIN


Home > Europe > Spain
Elevation: 98 feet     Latitude: 28 27N     Longitude: 013 52W

WEATHER
 
SELECT A DAY
Number of Records: 221,695;   Date Range: 7/1/96 - 12/18/14
 
SHARE

PRINT THIS DATA

[ ← Previous Day ]
WEATHER ALMANAC - JULY 22, 2014
[ Next Day → ]
[ °C ]   °F
Weather ElementAverageHighLow
Temperature75.2 °F80.6 °F (6:30 pm)68 °F (6:30 am)
Dewpoint63.8 °F68 °F (1:30 pm)59 °F (6:30 pm)
Humidity67 %78 % (6:30 am)43 % (7:00 pm)
Barometer30.03 in30.06 in (9:00 am)29.98 in (6:30 pm)
Wind Speed17.2 mph23 mph (7:00 pm)
Weather ElementAverage
Visibility8.6 mi
Wind DirectionSE (135.9 °)

Weather ElementTotal
Precipitation---
Cooling Degree Days9.3 (Base 65)
Growing Degree Days24.3 (Base 50)
Averaged from 39 records on July 22, 2014
WEATHER CONDITIONS BREAKOUT
WIND DIRECTION BREAKOUT
WEATHER BY HOUR - JULY 22, 2014
[ °C ]   °F
Local TimeTemperatureDewpointHumidityBarometerVisibilityWind DirectionWind SpeedGust SpeedPrecipitationEventsConditions
6:30 AM68.0 °F60.8 °F78 %30.04 in6.2 miNorth (360°)15.0 mphPartly Cloudy
7:00 AM69.0 °F61.0 °F70 %30.04 in12.0 miNorth (350°)12.7 mphScattered Clouds
7:00 AM68.0 °F60.8 °F78 %30.04 in6.2 miNorth (350°)11.5 mphPartly Cloudy
7:30 AM68.0 °F60.8 °F78 %30.04 in6.2 miNorth (360°)12.7 mphPartly Cloudy
8:00 AM69.8 °F62.6 °F78 %30.04 in6.2 miNorth (360°)15.0 mphPartly Cloudy
8:30 AM71.6 °F62.6 °F73 %30.04 in6.2 miNorth (10°)15.0 mphPartly Cloudy
9:00 AM71.6 °F62.6 °F73 %30.06 in6.2 miNNE (20°)16.1 mphPartly Cloudy
9:30 AM73.4 °F62.6 °F69 %30.06 in6.2 miNNE (30°)16.1 mphPartly Cloudy
10:00 AM73.4 °F62.6 °F69 %30.06 in6.2 miNE (40°)16.1 mphPartly Cloudy
10:00 AM75.0 °F63.0 °F58 %30.06 in12.0 miNNE (30°)16.1 mphScattered Clouds
10:30 AM75.2 °F62.6 °F65 %30.06 in6.2 miNE (40°)16.1 mphPartly Cloudy
11:00 AM75.2 °F64.4 °F69 %30.06 inNE (40°)16.1 mphClear
11:30 AM75.2 °F62.6 °F65 %30.06 inNE (40°)17.3 mphClear
12:00 PM77.0 °F64.4 °F65 %30.04 inNE (40°)16.1 mphClear
12:30 PM77.0 °F64.4 °F65 %30.06 inNE (40°)16.1 mphClear
1:00 PM79.0 °F64.0 °F51 %30.05 in16.0 miNE (40°)16.1 mph
1:00 PM77.0 °F64.4 °F65 %30.04 inNE (40°)16.1 mphClear
1:30 PM78.8 °F68.0 °F69 %30.04 inNE (50°)16.1 mphClear
2:00 PM77.0 °F68.0 °F74 %30.04 inENE (60°)15.0 mphClear
2:30 PM77.0 °F66.2 °F69 %30.04 inENE (60°)16.1 mphClear
3:00 PM77.0 °F66.2 °F69 %30.01 inENE (60°)17.3 mphClear
3:30 PM77.0 °F68.0 °F74 %30.01 inENE (60°)18.4 mphClear
4:00 PM78.0 °F67.0 °F61 %30.01 in19.0 miNE (50°)17.3 mph
4:00 PM77.0 °F68.0 °F74 %30.01 inENE (60°)17.3 mphClear
4:30 PM78.8 °F66.2 °F65 %30.01 inNE (50°)18.4 mphClear
5:00 PM77.0 °F66.2 °F69 %30.01 inNE (50°)19.6 mphClear
5:30 PM77.0 °F66.2 °F69 %30.01 inNE (50°)20.7 mphClear
6:30 PM80.6 °F59.0 °F48 %29.98 inNorth (10°)19.6 mphClear
7:00 PM80.6 °F60.8 °F51 %29.98 inNNE (20°)21.9 mphClear
7:00 PM80.0 °F62.0 °F43 %30.00 in19.0 miNorth (10°)23.0 mph
7:30 PM78.8 °F62.6 °F57 %30.01 inNNE (20°)20.7 mphClear
8:00 PM77.0 °F62.6 °F61 %30.01 inNorth (10°)20.7 mphClear
8:30 PM75.2 °F62.6 °F65 %30.01 inNorth (350°)20.7 mphClear
9:00 PM75.2 °F64.4 °F69 %30.04 in6.2 miNorth (350°)18.4 mphPartly Cloudy
9:30 PM73.4 °F62.6 °F69 %30.04 in6.2 miNorth (350°)18.4 mphPartly Cloudy
10:00 PM73.4 °F62.6 °F69 %30.04 in6.2 miNorth (360°)18.4 mphPartly Cloudy
10:30 PM73.4 °F64.4 °F73 %30.04 in6.2 miNorth (360°)17.3 mphPartly Cloudy
11:00 PM73.4 °F64.4 °F73 %30.04 in6.2 miNorth (360°)18.4 mphPartly Cloudy
11:30 PM73.4 °F64.4 °F73 %30.04 in6.2 miNorth (360°)18.4 mphPartly Cloudy
Hourly data recorded from GCFV, located miles away from Puerto del Rosario, Spain







STORIES FROM OUR PARTNERS